Printer-friendly version

IAU Minor Planet Center

Minor Planet Center

MPEC 2001-S17: 2001 QP153

The following Minor Planet Electronic Circular may be linked-to from your own Web pages, but must not otherwise be redistributed electronically.


Read MPEC 2001-S16 Read MPEC 2001-S18


M.P.E.C. 2001-S17                                Issued 2001 Sept. 20, 18:15 UT

     The Minor Planet Electronic Circulars contain information on unusual
         minor planets and routine data on comets.  They are published
   on behalf of Commission 20 of the International Astronomical Union by the
          Minor Planet Center, Smithsonian Astrophysical Observatory,
                          Cambridge, MA 02138, U.S.A.

             Prepared using the Tamkin Foundation Computer Network

                              MPC@CFA.HARVARD.EDU
          URL http://cfa-www.harvard.edu/iau/mpc.html  ISSN 1523-6714

                                  2001 QP153

                           Revision to MPEC 2001-Q66

Observations:
     K01QF3P 1 1996 08 14.44920 02 32 28.11 +77 00 50.2                      261
     K01QF3P 1 1996 08 14.47778 02 32 17.12 +77 03 58.6                      261
     K01QF3P  C2001 09 17.44561 16 51 38.14 +45 30 51.6          18.2 V      360
     K01QF3P  C2001 09 17.44806 16 51 38.25 +45 30 50.0                      360
     K01QF3P  C2001 09 17.45282 16 51 38.50 +45 30 46.9                      360

Observer details:
261 Palomar-DSS.  Trail located and measured by DANEOPS (A. Gnadig, R. Stoss).
    1.2-m Schmidt.
360 Kuma Kogen.  Observer A. Nakamura.  0.60-m f/6.0 Ritchey-Chretien + CCD.

Orbital elements:
2001 QP153
Epoch 2001 Oct. 18.0 TT = JDT 2452200.5                 Williams
M 175.08529              (2000.0)            P               Q
n   1.17090760     Peri.  244.32239     -0.70864384     +0.48014547
a   0.8914992      Node   317.71350     +0.15145422     -0.61214201
e   0.2136953      Incl.   50.20864     -0.68911939     -0.62828535
P   0.84           H   16.9           G   0.15           U   5
Residuals in seconds of arc
960814 261  0.1+  0.2+    010828 163  0.7-  0.0     010901 649  0.1-  0.2+
960814 261  0.1-  0.3-    010828 163  0.5-  0.5-    010902 151  0.3-  1.3+
010827 704  0.5+  0.1+    010828 163  0.4-  0.1-    010902 151  0.9+  1.0+
010827 704  0.1+  0.4-    010828 946  1.0-  1.2+    010902 151  0.2-  0.1+
010827 704  0.0   0.0     010828 946  0.7-  0.7+    010902 151  0.2-  0.2-
010827 704  0.3+  0.5-    010828 946  0.6-  0.1+    010902 151  0.2+  0.0
010827 704  0.2-  0.9-    010828 946  0.3-  0.1-    010902 151  0.3+  0.2-
010828 704  0.1+  0.5+    010828 599  0.2-  0.1-    010903 918  0.8+  0.2-
010828 704  0.1+  0.5+    010828 599  0.6+  0.0     010903 918  0.9-  0.5+
010828 704  0.1+  0.5+    010828 599  0.5+  0.1-    010903 918  0.5-  0.5-
010828 704  0.1+  0.4+    010828 599  0.1+  0.4-    010903 918  0.3-  0.2-
010828 649  0.1+  0.1-    010829 670  0.5+  0.7-    010903 118  0.2+  0.5-
010828 649  0.2-  0.1+    010829 670  0.4+  0.6-    010903 118  0.1-  0.3-
010828 649  0.2-  0.2+    010829 642  0.2+  0.2+    010903 540  0.1+  0.1-
010828 046  0.1+  0.4-    010829 642  0.0   0.1-    010903 540  0.1+  0.1+
010828 046  0.0   0.2+    010829 642  0.1+  0.0     010903 540  0.3+  0.2+
010828 046  0.3-  0.2+    010829 642  0.0   0.0     010903 540  0.1+  0.4-
010828 046  0.1-  0.3-    010829 642  0.1-  0.1+    010903 540  0.0   0.3-
010828 046  0.0   0.0     010829 151  0.7+  0.0     010904 918  0.8-  0.1-
010828 046  0.2-  0.0     010829 151  0.0   0.4-    010904 918  0.1+  0.1+
010828 118  0.9+  0.1-    010829 151  0.3+  0.2+    010904 918  0.1-  0.1-
010828 118  0.1+  0.2-    010829 151  0.4+  0.5+    010904 918  0.1+  0.3-
010828 118  0.1-  0.8-    010829 151  0.4-  0.2+    010904 918  0.4-  0.4-
010828 151  0.1-  0.2+    010829 540  0.1+  0.3-    010906 658  0.2+  0.3-
010828 151  0.1+  0.2+    010829 540  0.0   0.0     010906 658  0.1+  0.5-
010828 151  0.1+  0.2+    010829 540  0.0   0.0     010906 658  0.3-  0.2+
010828 611  0.1+  0.0     010829 540  0.1-  0.0     010908 658  0.1-  0.1+
010828 151  0.0   0.1+    010830 658  0.0   0.1+    010908 658  0.1+  0.1+
010828 611  0.5+  0.2-    010830 658  0.0   0.0     010908 658  0.2-  0.0
010828 595  0.9-  0.6-    010830 658  0.1+  0.3+    010913 113  0.9+  0.0
010828 595  0.2-  1.0+    010830 118  0.3+  0.1+    010913 113  0.3-  0.6+
010828 595  0.3+  0.4+    010830 118  0.1+  0.0     010913 113  0.2-  0.3-
010828 595  0.5-  0.7+    010830 118  0.4+  0.4+    010917 360  0.0   0.2-
010828 163  0.2-  0.4-    010901 649  0.1-  0.1+    010917 360  0.1-  0.1-
010828 163  0.3+  0.8-    010901 649  0.0   0.0     010917 360  0.0   0.1+

Ephemeris:
2001 QP153               a,e,i = 0.89, 0.21, 50                  q = 0.7010
Date    TT    R. A. (2000) Decl.     Delta      r     Elong.  Phase     V
2001 09 18    16 52.17   +45 24.9    0.531    1.051    79.9    70.3    18.1
2001 09 28    17 00.78   +43 57.7    0.638    1.066    77.6    66.6    18.4
2001 10 08    17 08.75   +42 58.7    0.729    1.077    75.3    63.8    18.6
2001 10 18    17 16.96   +42 19.0    0.802    1.082    73.0    61.8    18.8
2001 10 28    17 25.77   +41 56.0    0.855    1.081    71.1    60.4    18.9
2001 11 07    17 35.33   +41 47.9    0.887    1.075    69.6    59.8    18.9
2001 11 17    17 45.89   +41 53.7    0.896    1.064    68.5    59.9    18.9
2001 11 27    17 57.69   +42 13.4    0.883    1.048    67.9    60.8    18.9
2001 12 07    18 11.11   +42 45.3    0.846    1.026    67.7    62.6    18.8
2001 12 17    18 26.93   +43 26.7    0.787    1.000    67.7    65.6    18.7
2001 12 27    18 46.49   +44 11.5    0.706    0.969    67.7    69.9    18.5
2002 01 06    19 12.33   +44 42.7    0.607    0.935    67.3    76.0    18.3
2002 01 16    19 49.49   +44 16.3    0.493    0.897    65.3    84.7    18.1

Gareth V. Williams           (C) Copyright 2001 MPC           M.P.E.C. 2001-S17

Read MPEC 2001-S16 Read MPEC 2001-S18


Our Web policy. Index to the CBAT/MPC/ICQ pages.


Valid HTML 4.01!